{"data":{"norad_id":66279,"epoch":"2026-05-25T03:10:08.890176Z","epoch_age_seconds":64375,"freshness":"FRESH","line1":"1 66279U 25247Q   26145.13204734  .00010246  00000+0  35774-3 0  9993","line2":"2 66279  53.1583 196.6346 0001118  95.1871 264.9257 15.30186246 32730","mean_motion":15.30186246,"eccentricity":0.0001118,"inclination_deg":53.1583,"raan_deg":196.6346,"arg_perigee_deg":95.1871,"mean_anomaly_deg":264.9257,"bstar":0.00035774,"rev_number":3273,"period_min":94.106191567481,"perigee_km":474.48992733907,"apogee_km":476.02234604444,"semimajor_km":6853.3931366918,"source":"CELESTRAK","updated_at":"2026-05-25T13:38:21.162818Z"}}